Location: Decatur(IL)
(39.8400°N, 88.9550°W)
Time: 12:41:01
(UTC-05:00)

Cosmos 1953 - Visible Passes

Search period start: 19 April 2015 00:00
Search period end: 29 April 2015 00:00
Orbit: 544 x 567 km, 82.5° (Epoch: 18 April)

Date Brightness Start Highest point End Pass type
(mag) Time Alt. Az. Time Alt. Az. Time Alt. Az.
19 Apr 4.5 03:04:44 10° NNE 03:07:51 24° ENE 03:07:51 24° ENE visible
19 Apr 3.8 04:41:17 10° NW 04:43:39 21° WNW 04:43:39 21° WNW visible
20 Apr 4.4 03:02:00 10° NNE 03:04:52 26° ENE 03:04:52 26° ENE visible
20 Apr 4.1 04:38:53 10° NW 04:40:41 18° WNW 04:40:41 18° WNW visible
21 Apr 4.3 02:59:18 10° NNE 03:01:57 27° NE 03:01:57 27° NE visible
21 Apr 4.3 04:36:30 10° NW 04:37:44 15° WNW 04:37:44 15° WNW visible
22 Apr 4.3 02:56:35 10° N 02:59:02 28° NE 02:59:02 28° NE visible
22 Apr 4.6 04:34:11 10° NW 04:34:51 12° WNW 04:34:51 12° WNW visible
23 Apr 4.3 02:53:54 10° N 02:56:11 28° NNE 02:56:11 28° NNE visible
23 Apr 4.7 04:31:57 10° WNW 04:31:59 10° WNW 04:31:59 10° WNW visible
24 Apr 4.3 02:51:14 10° N 02:53:20 27° NNE 02:53:20 27° NNE visible
25 Apr 4.3 02:48:33 10° N 02:50:30 26° NNE 02:50:30 26° NNE visible
26 Apr 4.4 02:45:53 10° N 02:47:42 25° N 02:47:42 25° N visible
27 Apr 4.4 02:43:13 10° N 02:44:55 24° N 02:44:55 24° N visible
28 Apr 4.5 02:40:34 10° N 02:42:08 23° N 02:42:08 23° N visible
